[[{"header":{"parameterUnit":"m.s-1","parameterCategory":1,"la1":30.2991,"la2":30.254,"lo1":-89.0895,"lo2":-89.0444,"dy":0.0017,"dx":0.0017,"nx":28,"ny":28,"refTime":"2023-08-02T09:00:00:Z","depth":0,"parameterNumber":2,"parameterNumberName":"U-component_of_WINDS"},"data":[0,0,0,0,0,0,0,0,0,0,0,0,0,0,0,0,0,0,0,0,0,0,0,0,0,0,0,0,0,0,0,0,0,0,0,0,0,0,0,0,0,0,0,0,0,0,0,0,0,0,0,0,0,0,0,0,0,0,-1.3082,-1.3081,0,-1.2965,-1.2964,-1.2962,-1.2876,-1.2875,-1.2874,-1.2873,-1.2751,-1.2748,-1.2745,0,0,0,0,0,0,0,0,0,0,0,0,0,-1.3228,-1.3226,-1.3082,-1.3081,-1.308,-1.2965,-1.2964,-1.2962,-1.2876,-1.2875,-1.2874,-1.2873,-1.2751,-1.2748,-1.2745,0,0,0,0,0,0,0,0,0,0,0,0,0,-1.3144,-1.3226,-1.3083,-1.3023,-1.3016,-1.2966,-1.2964,-1.2962,-1.2876,-1.2875,-1.2874,-1.2873,-1.2752,-1.2749,-1.2745,-1.2744,0,0,-1.2733,-1.2731,0,0,0,0,0,0,0,0,-1.3149,-1.3138,-1.3033,-1.3027,-1.3019,-1.2934,-1.297,-1.2888,-1.2876,-1.2929,-1.2873,-1.2872,-1.2812,-1.2803,-1.2784,-1.2738,-1.2733,-1.2733,-1.273,-1.2729,-1.2728,0,0,0,0,0,0,0,-1.3154,-1.3143,-1.3036,-1.3032,-1.3023,-1.3001,-1.2987,-1.2954,-1.2878,-1.2924,-1.2918,-1.2905,-1.2808,-1.2788,-1.278,-1.2731,-1.2733,-1.2729,-1.2727,-1.2726,-1.2678,-1.2679,0,0,0,0,0,0,-1.317,-1.3148,-1.304,-1.3032,-1.3083,-1.2999,-1.2984,-1.2962,-1.2878,-1.2865,-1.2906,-1.2902,-1.2795,-1.2785,-1.2776,-1.2769,-1.2729,-1.2725,-1.2723,-1.2677,-1.2678,-1.2679,0,0,0,0,0,0,-1.3174,-1.3161,-1.3044,-1.3088,-1.3072,-1.2998,-1.2974,-1.2961,-1.294,-1.2865,-1.2851,-1.29,-1.2794,-1.2781,-1.2752,-1.2764,-1.2723,-1.272,-1.2676,-1.2677,-1.2679,-1.2756,0,0,0,0,0,0,-1.3178,-1.3163,-1.3163,-1.3089,-1.307,-1.3024,-1.2975,-1.2959,-1.2934,-1.2927,-1.2855,-1.2842,-1.2792,-1.2759,-1.2749,-1.2758,-1.2717,-1.2674,-1.2676,-1.2678,-1.2752,-1.276,-1.2767,0,0,0,0,0,-1.3184,-1.3188,-1.3163,-1.315,-1.3068,-1.3025,-1.3014,-1.2957,-1.2935,-1.2934,-1.2885,-1.2844,-1.2764,-1.2757,-1.2744,-1.2752,-1.2673,-1.2676,-1.2678,-1.2749,-1.2759,-1.2767,0,0,0,0,0,0,-1.3264,-1.3178,-1.3149,-1.313,-1.3086,-1.3011,-1.3007,-1.2969,-1.293,-1.2924,-1.2855,-1.2839,-1.2818,-1.2782,-1.2775,-1.2747,-1.2713,-1.2714,-1.2772,-1.278,-1.2787,-1.2797,-1.2714,0,0,0,0,0,-1.328,-1.3253,-1.3179,-1.3169,-1.3149,-1.3082,-1.3061,-1.3021,-1.2972,-1.2953,-1.2902,-1.2856,-1.282,-1.2798,-1.276,-1.2746,-1.2729,-1.2746,-1.2753,-1.276,-1.2761,-1.2751,-1.2757,-1.2687,-1.2687,-1.2687,0,0,-1.3312,-1.3261,-1.3249,-1.3184,-1.3145,-1.3119,-1.3067,-1.3041,-1.302,-1.2948,-1.2919,-1.288,-1.2823,-1.2802,-1.279,-1.2772,-1.2776,-1.2763,-1.2768,-1.2766,-1.2754,-1.2761,-1.2767,-1.2689,-1.2688,-1.2688,0,0,-1.3357,-1.3316,-1.3304,-1.3266,-1.3208,-1.3163,-1.3161,-1.3091,-1.3063,-1.3033,-1.2979,-1.2952,-1.2892,-1.2854,-1.2826,-1.2857,-1.2817,-1.2846,-1.2885,-1.2876,-1.2882,-1.2886,-1.2898,-1.2903,-1.2848,-1.2848,-1.2848,0,-1.3404,-1.3362,-1.3302,-1.328,-1.3253,-1.3188,-1.3175,-1.314,-1.3073,-1.3056,-1.3035,-1.2959,-1.2916,-1.2885,-1.2893,-1.2872,-1.2867,-1.2855,-1.2886,-1.289,-1.2893,-1.2903,-1.2908,-1.2852,-1.2851,-1.2851,-1.2851,0,-1.3423,-1.3395,-1.3392,-1.333,-1.3303,-1.3285,-1.3221,-1.3201,-1.3163,-1.312,-1.309,-1.3036,-1.2987,-1.2976,-1.2939,-1.294,-1.2931,-1.2899,-1.2864,-1.2905,-1.2914,-1.2917,-1.2858,-1.2856,-1.2855,-1.2854,0,0,-1.3516,-1.3421,-1.3421,-1.3392,-1.3323,-1.33,-1.3279,-1.3232,-1.3216,-1.3171,-1.3151,-1.3102,-1.3073,-1.3042,-1.2999,-1.2991,-1.302,-1.2961,-1.2958,-1.2974,-1.3018,-1.3043,-1.3049,-1.2993,-1.2993,-1.2993,-1.3023,0,-1.3551,-1.3511,-1.3456,-1.3434,-1.3408,-1.3345,-1.3326,-1.3282,-1.3241,-1.3212,-1.3166,-1.3133,-1.3097,-1.3078,-1.3067,-1.3019,-1.3028,-1.3016,-1.2974,-1.2973,-1.2991,-1.3053,-1.3079,-1.311,-1.3026,-1.3027,-1.3027,0,-1.3586,-1.3546,-1.3523,-1.3456,-1.3442,-1.3427,-1.338,-1.3353,-1.33,-1.3271,-1.3237,-1.3191,-1.3165,-1.3134,-1.3096,-1.309,-1.3069,-1.3042,-1.3042,-1.3037,-1.3003,-1.305,-1.3118,-1.3123,-1.3031,-1.3031,-1.3031,0,-1.3658,-1.3598,-1.3575,-1.3552,-1.3474,-1.3465,-1.3431,-1.3378,-1.3353,-1.3311,-1.3295,-1.325,-1.3226,-1.3192,-1.3135,-1.3117,-1.3104,-1.3068,-1.3079,-1.3081,-1.308,-1.3081,-1.3147,-1.3066,-1.3066,-1.3066,-1.3065,0,-1.3703,-1.3691,-1.3607,-1.3593,-1.3578,-1.3514,-1.35,-1.346,-1.3414,-1.3391,-1.3333,-1.3313,-1.3239,-1.3209,-1.3164,-1.3141,-1.313,-1.3106,-1.3094,-1.3111,-1.3115,-1.3098,-1.3094,-1.3067,-1.3066,-1.3066,-1.3066,0,-1.378,-1.3724,-1.3695,-1.3624,-1.3605,-1.3597,-1.3535,-1.3519,-1.3475,-1.3447,-1.3437,-1.3368,-1.333,-1.327,-1.3214,-1.3184,-1.3169,-1.3149,-1.3187,-1.318,-1.3196,-1.3196,-1.3254,-1.3258,-1.3174,-1.3175,-1.3176,0,-1.3814,-1.3803,-1.373,-1.3712,-1.3681,-1.3651,-1.3626,-1.3562,-1.3538,-1.3478,-1.3469,-1.3427,-1.3391,-1.3334,-1.3278,-1.3235,-1.3214,-1.3238,-1.3208,-1.3226,-1.3216,-1.3218,-1.3216,-1.3245,-1.3246,-1.3247,-1.3248,0,-1.3879,-1.3851,-1.3817,-1.3774,-1.3746,-1.3709,-1.3668,-1.3656,-1.3583,-1.3559,-1.352,-1.3492,-1.3436,-1.3395,-1.3345,-1.3309,-1.3267,-1.3258,-1.3259,-1.3277,-1.33,-1.3288,-1.3207,-1.3257,-1.3256,-1.3256,-1.3255,-1.3255,-1.3935,-1.3923,-1.387,-1.3835,-1.3798,-1.3761,-1.3743,-1.3697,-1.3665,-1.3615,-1.3579,-1.3543,-1.349,-1.3418,-1.3385,-1.3356,-1.3337,-1.3338,-1.3338,-1.3339,-1.3346,-1.3304,-1.3346,-1.3346,-1.3345,-1.3345,-1.3345,0,-1.3998,-1.3961,-1.3929,-1.3875,-1.3847,-1.381,-1.3763,-1.3742,-1.3711,-1.3666,-1.3632,-1.3588,-1.3548,-1.3489,-1.3445,-1.3433,-1.3412,-1.3423,-1.3424,-1.3417,-1.3365,-1.337,-1.3441,-1.3441,-1.3441,-1.3441,-1.3441,-1.3441,-1.4027,-1.4005,-1.3971,-1.393,-1.3892,-1.3858,-1.3834,-1.38,-1.3764,-1.3718,-1.3685,-1.3647,-1.3597,-1.3548,-1.351,-1.3493,-1.348,-1.3498,-1.3476,-1.3429,-1.342,-1.3412,-1.3416,-1.3495,-1.3495,-1.3529,-1.353,-1.353]},{"header":{"parameterUnit":"m.s-1","parameterCategory":1,"la1":30.2991,"la2":30.254,"lo1":-89.0895,"lo2":-89.0444,"dy":0.0017,"dx":0.0017,"nx":28,"ny":28,"refTime":"2023-08-02T09:00:00:Z","depth":0,"parameterNumber":3,"parameterNumberName":"V-component_of_WINDS"},"data":[0,0,0,0,0,0,0,0,0,0,0,0,0,0,0,0,0,0,0,0,0,0,0,0,0,0,0,0,0,0,0,0,0,0,0,0,0,0,0,0,0,0,0,0,0,0,0,0,0,0,0,0,0,0,0,0,0,0,0.4108,0.4108,0,0.4072,0.4071,0.4071,0.4014,0.4013,0.4012,0.4011,0.3974,0.3973,0.3973,0,0,0,0,0,0,0,0,0,0,0,0,0,0.4128,0.4128,0.4108,0.4108,0.4108,0.4072,0.4071,0.4071,0.4014,0.4013,0.4012,0.4011,0.3974,0.3973,0.3973,0,0,0,0,0,0,0,0,0,0,0,0,0,0.4108,0.4128,0.4109,0.4075,0.4072,0.4072,0.4071,0.4071,0.4015,0.4013,0.4012,0.401,0.3974,0.3973,0.3973,0.4003,0,0,0.3973,0.3973,0,0,0,0,0,0,0,0,0.4109,0.4107,0.4081,0.4077,0.4074,0.4046,0.4064,0.4048,0.4015,0.4036,0.4011,0.401,0.3999,0.3997,0.3993,0.4001,0.4,0.3973,0.3973,0.3973,0.3973,0,0,0,0,0,0,0,0.4111,0.4109,0.4094,0.408,0.4076,0.4061,0.4057,0.4061,0.4027,0.4034,0.403,0.4027,0.3997,0.3993,0.3992,0.3999,0.3973,0.3973,0.3973,0.3973,0.4025,0.4027,0,0,0,0,0,0,0.4117,0.411,0.4095,0.4093,0.4088,0.4062,0.4057,0.4056,0.4026,0.402,0.4028,0.4024,0.3994,0.3992,0.399,0.4019,0.3973,0.3973,0.3973,0.4024,0.4026,0.4027,0,0,0,0,0,0,0.4118,0.4116,0.4097,0.41,0.4097,0.4063,0.4063,0.4057,0.4053,0.4022,0.4015,0.4031,0.3993,0.399,0.3999,0.4017,0.3973,0.3973,0.4022,0.4025,0.4027,0.4081,0,0,0,0,0,0,0.4119,0.4117,0.4129,0.4101,0.4097,0.4107,0.4064,0.4057,0.4053,0.4048,0.4022,0.4017,0.3991,0.4,0.3999,0.4016,0.3973,0.402,0.4023,0.4026,0.4077,0.4084,0.4091,0,0,0,0,0,0.412,0.4146,0.4129,0.4128,0.4111,0.4108,0.4106,0.4076,0.4055,0.4065,0.4045,0.4018,0.4016,0.4001,0.4,0.4018,0.4019,0.4022,0.4026,0.4074,0.4083,0.409,0,0,0,0,0,0,0.4177,0.4142,0.4123,0.4142,0.4128,0.4099,0.4111,0.4087,0.408,0.4075,0.4039,0.4033,0.4046,0.4033,0.4017,0.4043,0.4013,0.4017,0.405,0.4059,0.4065,0.4067,0.3973,0,0,0,0,0,0.4192,0.4194,0.4163,0.4182,0.4176,0.4145,0.4143,0.4121,0.4106,0.41,0.408,0.4066,0.4062,0.406,0.4055,0.4076,0.4067,0.4087,0.4094,0.41,0.4102,0.4108,0.4115,0.4038,0.4038,0.4038,0,0,0.4223,0.4204,0.4207,0.4193,0.418,0.4181,0.4141,0.4145,0.4144,0.4101,0.4106,0.4092,0.4073,0.4087,0.4093,0.4077,0.4122,0.4104,0.4109,0.4108,0.4112,0.4119,0.4126,0.404,0.404,0.404,0,0,0.4278,0.4266,0.4278,0.4266,0.4246,0.4225,0.4228,0.4202,0.419,0.4195,0.4161,0.4161,0.4156,0.4143,0.4136,0.4184,0.4158,0.4184,0.4218,0.4225,0.4231,0.4236,0.425,0.4255,0.4187,0.4187,0.4187,0,0.4318,0.4319,0.4288,0.4292,0.4286,0.4246,0.4257,0.4247,0.4227,0.4223,0.4206,0.4196,0.4181,0.419,0.4201,0.4198,0.4198,0.4185,0.4233,0.4237,0.4242,0.4254,0.426,0.419,0.4189,0.4189,0.4189,0,0.4368,0.4369,0.4381,0.4361,0.4357,0.4365,0.4334,0.4333,0.4311,0.4291,0.4296,0.4277,0.4265,0.4266,0.4246,0.4271,0.4261,0.4239,0.4208,0.4252,0.4263,0.4268,0.4194,0.4193,0.4192,0.4191,0,0,0.4458,0.4419,0.4424,0.4413,0.4388,0.4388,0.4394,0.4382,0.438,0.4368,0.4369,0.4365,0.4343,0.4335,0.4313,0.4319,0.4354,0.4295,0.4294,0.4304,0.4376,0.4391,0.4397,0.4337,0.4338,0.4339,0.4377,0,0.4506,0.4512,0.4483,0.4497,0.4496,0.4457,0.4462,0.4446,0.4428,0.4423,0.4403,0.4398,0.4372,0.4366,0.4371,0.4349,0.4367,0.4346,0.4336,0.4336,0.4339,0.4404,0.4419,0.4456,0.4381,0.4382,0.4382,0,0.4562,0.4551,0.4564,0.4536,0.4534,0.4538,0.4523,0.4521,0.4501,0.4487,0.4477,0.4451,0.4453,0.4425,0.4425,0.4412,0.4406,0.4395,0.4395,0.4391,0.436,0.4398,0.4467,0.4472,0.439,0.4389,0.4389,0,0.4622,0.4611,0.4616,0.4609,0.4576,0.458,0.4566,0.4546,0.4539,0.4527,0.4522,0.451,0.4503,0.4494,0.4464,0.4448,0.4467,0.4438,0.4453,0.4453,0.4457,0.4456,0.4523,0.4459,0.4459,0.4458,0.4458,0,0.4676,0.4685,0.4642,0.4645,0.4653,0.462,0.4628,0.4611,0.4593,0.4591,0.4558,0.4557,0.4519,0.4513,0.4491,0.4492,0.449,0.4477,0.4471,0.4478,0.448,0.4472,0.4468,0.446,0.446,0.4459,0.4459,0,0.4743,0.4715,0.4718,0.4687,0.4679,0.4686,0.4658,0.4659,0.4638,0.4636,0.4634,0.4601,0.4592,0.4562,0.4547,0.4531,0.4539,0.4528,0.4545,0.454,0.4556,0.4553,0.4617,0.4623,0.4558,0.4559,0.4559,0,0.4778,0.4784,0.4752,0.4748,0.4736,0.4731,0.4724,0.4691,0.4685,0.4662,0.4665,0.4653,0.4642,0.4629,0.4603,0.4591,0.4577,0.4601,0.4575,0.4582,0.4573,0.4572,0.4571,0.4605,0.4606,0.4607,0.4608,0,0.4842,0.4827,0.4818,0.4804,0.4796,0.4784,0.4769,0.4768,0.4731,0.4725,0.4715,0.4707,0.469,0.4677,0.466,0.4645,0.4619,0.4616,0.4618,0.4625,0.4633,0.4625,0.4556,0.4614,0.4614,0.4613,0.4613,0.4612,0.4891,0.4893,0.4871,0.4861,0.4847,0.4833,0.4831,0.481,0.4801,0.4784,0.4765,0.4757,0.4735,0.4709,0.4696,0.4688,0.4674,0.4678,0.4679,0.4679,0.4682,0.4637,0.4685,0.4685,0.4684,0.4684,0.4684,0,0.495,0.4934,0.4925,0.4905,0.4897,0.4874,0.4856,0.4851,0.4844,0.4826,0.4815,0.4802,0.479,0.4763,0.4747,0.4746,0.4734,0.4743,0.4741,0.4737,0.4696,0.4694,0.4753,0.4753,0.4753,0.4753,0.4753,0.4753,0.498,0.4981,0.4963,0.4955,0.4939,0.493,0.4921,0.4908,0.4893,0.488,0.4869,0.4851,0.4829,0.4811,0.4798,0.4791,0.4785,0.4798,0.4786,0.4747,0.4741,0.4734,0.4732,0.4797,0.4798,0.4827,0.4827,0.4827]}]]